weather station
Area: 7197 km2
The highest point: Čupec (819 m.s.l.)
Total stations: 38
Stations online: 36
Stations offline: 2
Current weather
16°C

Meteorological map - weather stations in Jihomoravský

. The meteorological maps show weather information from WARIO weather stations

Weather stations Jihomoravský

 UpdatesNameStatusTemperatureHumidityWind speedWind direction
18.10.2017 16:37Adamov13.8 °C %0.0 m/s SE
18.10.2017 16:37Boskovice18.2 °C69.1 %1.4 m/s E
18.10.2017 16:37Brno - Jundrov16.8 °C72.3 %1.2 m/s NE
18.10.2017 16:37Brno - Líšeň15.5 °C48.1 %1.0 m/s NW
18.10.2017 16:37Brno - Vinohrady15.0 °C89.4 %0.9 m/s NW
18.10.2017 16:37Brno - Komín16.0 °C76.9 %1.6 m/s S
18.10.2017 16:37Brno14.7 °C78.6 %2.9 m/s N
18.10.2017 16:37Brno-Kníničky16.4 °C78.5 %0.7 m/s SW
18.10.2017 16:37Býkovice15.4 °C84.1 %2.9 m/s N
5.9.2017 09:27Bítov23.3 °C43.0 %0.7 m/s NW
18.10.2017 16:37Diváky12.9 °C81.1 %0.8 m/s E
18.10.2017 16:37Letonice15.5 °C81.7 %3.5 m/s SW
18.10.2017 16:37Brno - Královo pole16.0 °C62.8 %1.6 m/s NE
18.10.2017 16:37Hodonín20.9 °C59.0 %1.9 m/s SE
18.10.2017 16:37Brno16.2 °C76.9 %1.0 m/s S
18.10.2017 16:37Moravany17.3 °C71.1 %0.8 m/s NE
18.10.2017 16:37Lesní Hluboké 11.5 °C88.5 %1.9 m/s E
18.10.2017 16:37Višňové11.5 °C86.3 %0.0 m/s W
18.10.2017 16:37Vranov15.0 °C81.0 %0.9 m/s N
18.10.2017 16:37Dolní Dubňany11.0 °C99.2 %1.5 m/s SE
18.10.2017 16:37Bzenec21.0 °C56.7 %0.4 m/s SE
18.10.2017 16:37Svatobořice19.7 °C56.5 %1.6 m/s SE
18.10.2017 16:37Moravské Bránice13.2 °C88.1 %0.9 m/s NW
18.10.2017 16:37Nová Lhota17.3 °C74.4 %0.0 m/s W
18.10.2017 16:37Pohořelice12.1 °C85.3 %0.7 m/s S
18.10.2017 16:37Brno13.5 °C88.5 %2.3 m/s NE
18.10.2017 16:37Rousínov15.5 °C82.9 %1.6 m/s N
18.10.2017 16:37Šerkovice15.8 °C82.4 %2.8 m/s S
13.10.2017 10:53Brno-střed13.2 °C73.3 %0.0 m/s W
18.10.2017 16:37Strážnice21.1 °C57.8 %0.0 m/s SE
18.10.2017 16:37Němčičky13.6 °C79.5 %1.0 m/s N
18.10.2017 16:36Valtice14.1 °C84.7 %1.4 m/s E
18.10.2017 16:37Veselí nad Moravou LMK10919.3 °C66.7 %2.7 m/s S
18.10.2017 16:37Veselí nad Moravou19.6 °C61.1 %0.6 m/s SW
18.10.2017 16:37Lipov18.8 °C100.0 %0.0 m/s SE
18.10.2017 16:37Strachotín12.3 °C91.7 %1.7 m/s W
18.10.2017 16:37Terezín16.6 °C78.9 %1.6 m/s SW
18.10.2017 16:36Brno - Královo Pole15.2 °C73.5 %0.9 m/s W
Email notifications
Enter your email address to subscribe to notifications about news at warioweather.com. Your email address will not be used for any purpose other than sending these emails and will not be provided to any third party. The subscription can be ended at any time.
All data are only indicative. The portal administrator has no responsibility for potentially incorrect data and related consequences. Publishing or further sharing of content from www.warioweather.com is only allowed with written consent from WANET s.r.o.